This demonstration page uses our WeatherBlox Daily Observations layout. Learn more.

Left ArrowRight Arrow

31.31129, -92.44514

Hourly Observations for August 23, 2022

Temp ( °F °C ) Dew Point ( °F °C ) Humidity (%) Winds ( mph kmh ) Pressure ( in mb ) Visibility ( mi km ) Precip ( " mm )
12:53 am 00:53 Cloudy 78 25.6 75 23.9 90 90 SE 10 17 29.90 1013 9 14 0.00 0.00
1:53 am 01:53 Cloudy with Mist and Fog 78 25.6 75 23.9 90 90 SE 10 17 29.88 1012 6 10 0.01 0.13
2:53 am 02:53 Cloudy with Mist and Fog 78 25.6 75 23.9 90 90 SSE 8 13 29.87 1011 6 10 0.00 0.00
3:53 am 03:53 Cloudy with Light Rain 78 25.6 75 23.9 90 90 SSE 8 13 29.86 1011 6 10 0.01 0.25
4:36 am 04:36 Mostly Cloudy with Rain 78 25.6 76 24.4 93 93 S 9 15 29.86 1011 4 6 0.07 1.78
4:53 am 04:53 Mostly Cloudy with Light Rain 77 25 74 23.3 90 90 S 8 13 29.86 1011 8 13 0.08 2.03
5:40 am 05:40 Cloudy with Heavy Rain 78 25.6 75 23.9 90 90 S 5 7 29.87 1011 2 3 0.14 3.56
5:53 am 05:53 Cloudy with Heavy Rain 77 25 75 23.9 94 94 SSW 8 13 29.87 1012 1 1 0.37 9.40
6:05 am 06:05 Cloudy with Heavy Rain 76 24.4 74 23.3 94 94 Calm 29.86 1011 2 3 0.09 2.29
6:15 am 06:15 Mostly Cloudy with Rain 76 24.4 74 23.3 94 94 S 3 6 29.86 1011 5 8 0.11 2.79
6:53 am 06:53 Mostly Sunny 77 25 74 23.3 90 90 ESE 6 9 29.85 1011 10 16 0.12 3.05
7:53 am 07:53 Mostly Cloudy with Light Rain 79 26.1 76 24.4 90 90 S 7 11 29.86 1011 6 10 0.01 0.13
8:22 am 08:22 Cloudy with Light Rain 79 26.1 76 24.4 90 90 S 6 9 29.86 1011 8 13 0.01 0.13
8:33 am 08:33 Cloudy 79 26.1 76 24.4 90 90 S 3 6 29.86 1011 7 11 0.01 0.13
8:53 am 08:53 Cloudy 79 26.1 76 24.4 90 90 SSE 7 11 29.87 1012 7 11 0.01 0.13
9:45 am 09:45 Cloudy 80 26.7 77 25 90 90 SSE 9 15 29.87 1011 9 14 0.00 0.00
9:53 am 09:53 Cloudy with Mist and Fog 80 26.7 77 25 90 90 SSE 9 15 29.88 1012 6 10 0.00 0.00
10:09 am 10:09 Cloudy 81 27.2 77 25 88 88 SSE 10 17 29.87 1011 8 13 0.00 0.00
10:21 am 10:21 Cloudy 81 27.2 77 25 88 88 SSE 8 13 29.87 1011 10 16 0.00 0.00
10:53 am 10:53 Cloudy 83 28.3 76 24.4 79 79 S 9 15 29.87 1012 10 16 0.00 0.00
11:00 am 11:00 Mostly Cloudy 83 28.3 76 24.4 79 79 SSW 10 17 29.86 1011 10 16 0.00 0.00
11:40 am 11:40 Mostly Cloudy 86 30 76 24.4 72 72 SSW 12 19 29.84 1011 10 16 0.00 0.00
11:53 am 11:53 Cloudy 85 29.4 76 24.4 75 75 SW 9 15 29.85 1011 10 16 0.00 0.00
12:12 pm 12:12 Mostly Cloudy 87 30.6 77 25 72 72 SSW 6 9 29.84 1010 10 16 0.00 0.00
12:20 pm 12:20 Mostly Cloudy 87 30.6 76 24.4 70 70 SSW 9 15 29.84 1010 10 16 0.00 0.00
12:27 pm 12:27 Mostly Cloudy 88 31.1 76 24.4 68 68 SSW 8 13 29.84 1010 10 16 0.00 0.00
12:36 pm 12:36 Mostly Cloudy with Heavy Rain 84 28.9 75 23.9 74 74 SW 23 37 29.85 1011 1 2 0.13 3.30
12:53 pm 12:53 Cloudy with Light Rain 78 25.6 71 21.7 79 79 SSW 9 15 29.83 1010 10 16 0.19 4.83
1:53 pm 13:53 Mostly Sunny 84 28.9 77 25 80 80 S 16 26 29.81 1010 10 16 0.01 0.13
2:16 pm 14:16 Mostly Cloudy with Thunderstorms 84 28.9 76 24.4 77 77 S 12 19 29.81 1009 8 13 0.01 0.13
2:33 pm 14:33 Cloudy with Strong Thunderstorms 81 27.2 76 24.4 85 85 VRB 3 6 29.81 1009 1 1 0.22 5.59
2:41 pm 14:41 Cloudy with Strong Thunderstorms 80 26.7 76 24.4 87 87 S 7 11 29.82 1010 0 0 0.47 11.94
2:51 pm 14:51 Cloudy with Thunderstorms 81 27.2 77 25 88 88 S 7 11 29.81 1010 2 2 0.52 13.21
2:54 pm 14:54 Cloudy with Thunderstorms 81 27.2 77 25 88 88 S 5 7 29.81 1009 3 5 0.01 0.13
2:58 pm 14:58 Cloudy with Light Rain 81 27.2 77 25 88 88 SSE 5 7 29.81 1009 7 11 0.01 0.13
3:13 pm 15:13 Cloudy with Nearby Thunderstorms 83 28.3 77 25 82 82 S 3 6 29.81 1009 10 16 0.01 0.13
3:21 pm 15:21 Cloudy with Thunderstorms 83 28.3 76 24.4 79 79 SSE 3 6 29.81 1009 10 16 0.01 0.13
3:41 pm 15:41 Cloudy with Strong Thunderstorms 78 25.6 73 22.8 85 85 SW 13 20 29.82 1010 2 2 0.07 1.78
3:44 pm 15:44 Cloudy with Strong Thunderstorms 77 25 73 22.8 88 88 WSW 15 24 29.82 1010 1 1 0.15 3.81
3:58 pm 15:58 Cloudy with Nearby Thunderstorms 77 25 74 23.3 90 90 S 13 20 29.81 1009 1 2 0.01 0.25
4:02 pm 16:02 Cloudy with Nearby Thunderstorms 77 25 74 23.3 90 90 S 15 24 29.81 1009 3 5 0.02 0.51
4:53 pm 16:53 Partly Cloudy with Nearby Thunderstorms 79 26.1 75 23.9 88 88 S 8 13 29.80 1009 10 16 0.02 0.51
4:58 pm 16:58 Partly Cloudy with Nearby Thunderstorms 79 26.1 75 23.9 88 88 NW 18 30 29.82 1010 3 4 0.04 1.02
5:06 pm 17:06 Mostly Cloudy with Thunderstorms 77 25 73 22.8 88 88 NNW 14 22 29.82 1010 2 2 0.07 1.78
5:15 pm 17:15 Mostly Cloudy with Strong Thunderstorms 76 24.4 73 22.8 91 91 NNW 13 20 29.82 1010 1 2 0.13 3.30
5:28 pm 17:28 Cloudy with Strong Thunderstorms 77 25 74 23.3 90 90 SW 7 11 29.82 1010 1 1 0.32 8.13
5:33 pm 17:33 Cloudy with Nearby Thunderstorms 77 25 74 23.3 90 90 SSW 3 6 29.82 1010 1 2 0.32 8.13
5:39 pm 17:39 Cloudy with Heavy Rain 77 25 74 23.3 90 90 SW 3 6 29.82 1010 2 3 0.35 8.89
5:46 pm 17:46 Cloudy with Nearby Thunderstorms 77 25 74 23.3 90 90 Calm 29.82 1010 3 5 0.35 8.89
5:53 pm 17:53 Cloudy with Thunderstorms 77 25 74 23.3 90 90 S 6 9 29.83 1010 9 14 0.35 8.89
6:08 pm 18:08 Cloudy with Nearby Thunderstorms 78 25.6 75 23.9 90 90 S 8 13 29.82 1010 6 10 0.01 0.25
6:25 pm 18:25 Cloudy 79 26.1 75 23.9 88 88 S 9 15 29.82 1010 10 16 0.01 0.25
6:41 pm 18:41 Cloudy 79 26.1 75 23.9 88 88 S 9 15 29.83 1010 9 14 0.01 0.25
6:53 pm 18:53 Cloudy 78 25.6 75 23.9 90 90 S 9 15 29.83 1010 10 16 0.01 0.25
7:53 pm 19:53 Cloudy 77 25 73 22.8 88 88 S 7 11 29.83 1010 10 16 0.01 0.13
8:20 pm 20:20 Mostly Cloudy 77 25 74 23.3 90 90 S 7 11 29.84 1010 10 16 0.00 0.00
8:53 pm 20:53 Partly Cloudy 76 24.4 73 22.8 91 91 S 7 11 29.83 1010 10 16 0.01 0.25
9:53 pm 21:53 Clear 75 23.9 72 22.2 90 90 SSE 3 6 29.85 1011 10 16 0.00 0.00
10:12 pm 22:12 Mostly Clear 75 23.9 72 22.2 90 90 Calm 29.85 1011 10 16 0.00 0.00
10:53 pm 22:53 Clear 75 23.9 72 22.2 90 90 S 3 6 29.87 1011 10 16 0.00 0.00
11:32 pm 23:32 Cloudy 76 24.4 73 22.8 91 91 ESE 3 6 29.87 1011 10 16 0.00 0.00
11:43 pm 23:43 Cloudy 76 24.4 73 22.8 91 91 Calm 29.87 1011 10 16 0.00 0.00
11:53 pm 23:53 Cloudy 76 24.4 73 22.8 91 91 ESE 3 6 29.88 1012 10 16 0.00 0.00

Powered by AerisWeather